Location: Asheville, NC
(35.6000°N, 82.5500°W)
Time: 03:46:31
(UTC-05:00)

XW-2F - Pass Details

Date: 03 January 2018
Orbit: 506 x 528 km, 97.5° (Epoch: 20 January)

Event Time Altitude Azimuth Distance (km) Brightness Sun altitude
Rises 06:10:48 0° 20° (NNE) 2,648 ? -17.7°
Reaches altitude 10° 06:13:01 10° 29° (NNE) 1,752 ? -17.2°
Maximum altitude 06:16:33 38° 98° (E) 800 ? -16.6°
Drops below altitude 10° 06:20:03 10° 168° (SSE) 1,727 ? -15.9°
Sets 06:22:13 0° 176° (S) 2,605 ? -15.5°
